When you browse on this site, cookies collect data to enhance your experience and personalize the content and advertising you see.
Visit our Privacy Policy to learn more. By continuing to use the site, you agree to this use of cookies and data.
  • In France
  • List of Countries
  • For 7 days
  • Water Temperature
  • Satellite Maps
  • Weather Map
  • Weather Widgets
  • user-avatar
    Login

    Hourly Weather Sent-Eli

    Today, 22 July, Monday

    Time Temperature Precipitation Wind Pressure Humidity
    00:00 +26°C° 1.7 mm 4 mps 756 mmHg 94%
    01:00 +25°C° 1.7 mm 4 mps 756 mmHg 94%
    02:00 +25°C° 1.7 mm 3 mps 755 mmHg 94%
    03:00 +25°C° 1.2 mm 4 mps 755 mmHg 95%
    04:00 +25°C° 1.2 mm 4 mps 755 mmHg 95%
    05:00 +25°C° 1.2 mm 4 mps 755 mmHg 95%
    06:00 +25°C° 0.8 mm 4 mps 756 mmHg 94%
    07:00 +26°C° 0.8 mm 3 mps 756 mmHg 93%
    08:00 +27°C° 0.8 mm 3 mps 756 mmHg 92%
    09:00 +28°C° 0.5 mm 3 mps 756 mmHg 88%
    10:00 +29°C° 0.5 mm 3 mps 756 mmHg 85%
    11:00 +29°C° 0.5 mm 3 mps 756 mmHg 82%
    12:00 +30°C° 0.2 mm 3 mps 756 mmHg 80%
    13:00 +30°C° 0.2 mm 4 mps 755 mmHg 78%
    14:00 +30°C° 0.2 mm 4 mps 755 mmHg 76%
    15:00 +29°C° 0.3 mm 4 mps 755 mmHg 80%
    16:00 +28°C° 0.3 mm 4 mps 755 mmHg 84%
    17:00 +28°C° 0.3 mm 4 mps 755 mmHg 88%
    18:00 +27°C° 0.1 mm 4 mps 755 mmHg 90%
    19:00 +26°C° 0.1 mm 4 mps 756 mmHg 91%
    20:00 +25°C° 0.1 mm 4 mps 756 mmHg 92%
    21:00 +25°C° 0 mm 4 mps 756 mmHg 93%
    22:00 +25°C° 0 mm 4 mps 756 mmHg 93%
    23:00 +25°C° 0 mm 4 mps 757 mmHg 93%

    Tomorrow, 23 July, Tuesday

    Time Temperature Precipitation Wind Pressure Humidity
    00:00 +25°C° 0 mm 4 mps 756 mmHg 93%
    01:00 +24°C° 0 mm 3 mps 756 mmHg 94%
    02:00 +24°C° 0 mm 3 mps 755 mmHg 94%
    03:00 +24°C° 0 mm 3 mps 755 mmHg 95%
    04:00 +24°C° 0 mm 3 mps 755 mmHg 95%
    05:00 +22°C° 0 mm 3 mps 755 mmHg 96%
    06:00 +25°C° 0 mm 3 mps 756 mmHg 91%
    07:00 +27°C° 0 mm 3 mps 756 mmHg 87%
    08:00 +28°C° 0 mm 3 mps 757 mmHg 82%
    09:00 +29°C° 0.1 mm 3 mps 757 mmHg 80%
    10:00 +30°C° 0.1 mm 3 mps 757 mmHg 77%
    11:00 +30°C° 0.1 mm 4 mps 757 mmHg 74%
    12:00 +32°C° 0.4 mm 4 mps 756 mmHg 71%
    13:00 +32°C° 0.4 mm 4 mps 755 mmHg 68%
    14:00 +32°C° 0.4 mm 4 mps 755 mmHg 65%
    15:00 +30°C° 0.1 mm 4 mps 755 mmHg 68%
    16:00 +30°C° 0.1 mm 4 mps 754 mmHg 72%
    17:00 +29°C° 0.1 mm 4 mps 754 mmHg 75%
    18:00 +28°C° 0 mm 4 mps 755 mmHg 79%
    19:00 +27°C° 0 mm 4 mps 755 mmHg 82%
    20:00 +26°C° 0 mm 4 mps 756 mmHg 86%
    21:00 +26°C° 0.2 mm 4 mps 756 mmHg 87%
    22:00 +26°C° 0.2 mm 4 mps 756 mmHg 88%
    23:00 +26°C° 0.2 mm 4 mps 756 mmHg 89%

    Day after tomorrow, 24 July, Wednesday

    Time Temperature Precipitation Wind Pressure Humidity
    00:00 +26°C° 0.5 mm 4 mps 756 mmHg 90%
    01:00 +25°C° 0.5 mm 4 mps 755 mmHg 91%
    02:00 +25°C° 0.5 mm 4 mps 755 mmHg 93%
    03:00 +25°C° 0.2 mm 4 mps 755 mmHg 93%
    04:00 +25°C° 0.2 mm 4 mps 755 mmHg 94%
    05:00 +23°C° 0.2 mm 4 mps 755 mmHg 95%
    06:00 +25°C° 0 mm 4 mps 755 mmHg 93%
    07:00 +26°C° 0 mm 3 mps 756 mmHg 90%
    08:00 +27°C° 0 mm 3 mps 756 mmHg 88%
    09:00 +28°C° 0.5 mm 3 mps 756 mmHg 82%
    10:00 +29°C° 0.5 mm 4 mps 756 mmHg 76%
    11:00 +30°C° 0.5 mm 4 mps 756 mmHg 70%
    12:00 +30°C° 0.3 mm 4 mps 756 mmHg 70%
    13:00 +30°C° 0.3 mm 4 mps 755 mmHg 71%
    14:00 +30°C° 0.3 mm 4 mps 755 mmHg 71%
    15:00 +30°C° 0.1 mm 4 mps 755 mmHg 75%
    16:00 +29°C° 0.1 mm 4 mps 755 mmHg 79%
    17:00 +28°C° 0.1 mm 4 mps 755 mmHg 83%
    18:00 +27°C° 0.1 mm 3 mps 755 mmHg 85%
    19:00 +26°C° 0.1 mm 3 mps 755 mmHg 88%
    20:00 +26°C° 0.1 mm 3 mps 756 mmHg 91%
    21:00 +25°C° 0.8 mm 3 mps 756 mmHg 92%
    22:00 +25°C° 0.8 mm 3 mps 756 mmHg 93%
    23:00 +25°C° 0.8 mm 3 mps 756 mmHg 94%

    25 July, Thursday

    Time Temperature Precipitation Wind Pressure Humidity
    00:00 +25°C° 0.3 mm 3 mps 756 mmHg 94%
    01:00 +25°C° 0.3 mm 3 mps 755 mmHg 94%
    02:00 +25°C° 0.3 mm 3 mps 755 mmHg 94%
    03:00 +24°C° 0.4 mm 3 mps 755 mmHg 94%
    04:00 +24°C° 0.4 mm 2 mps 755 mmHg 95%
    05:00 +24°C° 0.4 mm 2 mps 755 mmHg 95%
    06:00 +25°C° 0.3 mm 2 mps 755 mmHg 91%
    07:00 +26°C° 0.3 mm 2 mps 756 mmHg 88%
    08:00 +27°C° 0.3 mm 2 mps 756 mmHg 85%
    09:00 +29°C° 0.1 mm 2 mps 756 mmHg 78%
    10:00 +30°C° 0.1 mm 2 mps 756 mmHg 72%
    11:00 +31°C° 0.1 mm 2 mps 756 mmHg 66%
    12:00 +31°C° 0.3 mm 2 mps 756 mmHg 66%
    13:00 +31°C° 0.3 mm 2 mps 755 mmHg 65%
    14:00 +31°C° 0.3 mm 2 mps 755 mmHg 65%
    15:00 +30°C° 0.1 mm 2 mps 755 mmHg 68%
    16:00 +29°C° 0.1 mm 2 mps 755 mmHg 72%
    17:00 +29°C° 0.1 mm 2 mps 755 mmHg 76%
    18:00 +28°C° 0.5 mm 2 mps 755 mmHg 78%
    19:00 +27°C° 0.5 mm 2 mps 755 mmHg 80%
    20:00 +27°C° 0.5 mm 2 mps 756 mmHg 82%
    21:00 +26°C° 0.9 mm 2 mps 756 mmHg 85%
    22:00 +26°C° 0.9 mm 2 mps 756 mmHg 87%
    23:00 +26°C° 0.9 mm 2 mps 756 mmHg 90%

    26 July, Friday

    Time Temperature Precipitation Wind Pressure Humidity
    00:00 +25°C° 1.1 mm 2 mps 756 mmHg 91%
    01:00 +25°C° 1.1 mm 2 mps 755 mmHg 92%
    02:00 +25°C° 1.1 mm 2 mps 754 mmHg 93%
    03:00 +25°C° 0.9 mm 2 mps 755 mmHg 93%
    04:00 +25°C° 0.9 mm 2 mps 755 mmHg 93%
    05:00 +25°C° 0.9 mm 2 mps 755 mmHg 94%
    06:00 +25°C° 0.2 mm 1 mps 756 mmHg 92%
    07:00 +25°C° 0.2 mm 1 mps 756 mmHg 91%
    08:00 +26°C° 0.2 mm 1 mps 757 mmHg 90%
    09:00 +28°C° 0 mm 1 mps 757 mmHg 79%
    10:00 +30°C° 0 mm 1 mps 756 mmHg 67%
    11:00 +32°C° 0 mm 2 mps 756 mmHg 56%
    12:00 +32°C° 0 mm 2 mps 756 mmHg 56%
    13:00 +33°C° 0 mm 3 mps 755 mmHg 57%
    14:00 +33°C° 0 mm 3 mps 754 mmHg 57%
    15:00 +32°C° 0.1 mm 4 mps 754 mmHg 63%
    16:00 +30°C° 0.1 mm 4 mps 754 mmHg 70%
    17:00 +29°C° 0.1 mm 4 mps 754 mmHg 76%
    18:00 +28°C° 0 mm 4 mps 755 mmHg 79%
    19:00 +27°C° 0 mm 4 mps 755 mmHg 82%
    20:00 +27°C° 0 mm 4 mps 756 mmHg 85%
    21:00 +27°C° 0.3 mm 4 mps 756 mmHg 87%
    22:00 +26°C° 0.3 mm 5 mps 756 mmHg 88%
    23:00 +26°C° 0.3 mm 5 mps 756 mmHg 89%

    27 July, Saturday

    Time Temperature Precipitation Wind Pressure Humidity
    00:00 +26°C° 0.2 mm 5 mps 756 mmHg 90%
    01:00 +26°C° 0.2 mm 5 mps 756 mmHg 91%
    02:00 +26°C° 0.2 mm 5 mps 755 mmHg 92%
    03:00 +25°C° 0 mm 5 mps 755 mmHg 93%
    04:00 +25°C° 0 mm 5 mps 755 mmHg 93%
    05:00 +25°C° 0 mm 5 mps 755 mmHg 93%
    06:00 +27°C° 0 mm 5 mps 756 mmHg 88%
    07:00 +28°C° 0 mm 5 mps 756 mmHg 82%
    08:00 +30°C° 0 mm 5 mps 756 mmHg 77%
    09:00 +30°C° 0.1 mm 5 mps 756 mmHg 77%
    10:00 +30°C° 0.1 mm 5 mps 756 mmHg 77%
    11:00 +30°C° 0.1 mm 5 mps 756 mmHg 77%
    12:00 +30°C° 0.6 mm 5 mps 756 mmHg 79%
    13:00 +30°C° 0.6 mm 5 mps 755 mmHg 82%
    14:00 +29°C° 0.6 mm 5 mps 754 mmHg 84%
    15:00 +29°C° 0.3 mm 5 mps 754 mmHg 83%
    16:00 +29°C° 0.3 mm 5 mps 754 mmHg 83%
    17:00 +29°C° 0.3 mm 5 mps 754 mmHg 82%
    18:00 +28°C° 0.1 mm 5 mps 755 mmHg 84%
    19:00 +28°C° 0.1 mm 5 mps 755 mmHg 86%
    20:00 +27°C° 0.1 mm 5 mps 756 mmHg 88%
    21:00 +27°C° 0.2 mm 5 mps 756 mmHg 89%
    22:00 +26°C° 0.2 mm 6 mps 756 mmHg 89%
    23:00 +26°C° 0.2 mm 6 mps 757 mmHg 90%
    Show more